Edna St. Vincent Millay

(22 February 1892 – 19 October 1950 / Rockland / Maine / United States)

Stats

» Click to list general statistics » OR, select a date :

General Statistics

Visitors of the poet

Number of visitors of the poet’s mainpage in PoemHunter.Com

Attention : Numbers in this table does not indicate the total hits of poems of the poet, but indicates the hits of the poet’s main page.

Date Hits
05/02/2015 Saturday 896
63%
05/01/2015 Friday 1074
76%
04/30/2015 Thursday 905
64%
04/29/2015 Wednesday 924
65%
04/28/2015 Tuesday 1049
74%
04/27/2015 Monday 930
66%
04/26/2015 Sunday 1282
90%
04/25/2015 Saturday 890
63%
04/24/2015 Friday 830
58%
04/23/2015 Thursday 922
65%
04/22/2015 Wednesday 898
63%
04/21/2015 Tuesday 919
65%
04/20/2015 Monday 992
70%
04/19/2015 Sunday 1038
73%
04/18/2015 Saturday 906
64%
04/17/2015 Friday 962
68%
04/16/2015 Thursday 1409
100%
04/15/2015 Wednesday 1025
72%
04/14/2015 Tuesday 1143
81%
04/13/2015 Monday 1091
77%

Reader rating & num.of MyPoemList’s

Click the captions of columns to change the order.

# Poem Title Submit Date Reader Rating Num.of MyPoemList’s
Rating Num.R.
1 The Courage That My Mother Had 01/03/2015 -- 0 1
2 Childhood Is The Kingdom Where Nobody Dies 11/28/2014 -- 0 0
3 To Kathleen 01/01/2004 5.5 57 4
4 Euclid Alone 01/01/2004 5.7 46 16
5 Grown-Up 01/01/2004 6.2 25 31
6 The Betrothal 01/01/2004 5.6 37 13
7 The Blue Flag In The Bog 01/01/2004 5.9 34 4
8 [four Sonnets (1922)] 01/01/2004 5.2 106 30
9 When I Too Long Have Looked Upon Your Face 01/01/2004 6.2 36 30
10 Bluebeard 01/01/2004 5.5 80 43
11 And You As Well Must Die, Belovèd Dust 01/01/2004 6.0 76 53
12 Thursday 01/01/2004 5.3 76 11
13 To A Young Poet 01/01/2004 5.9 61 9
14 If I Should Learn, In Some Quite Casual Way 01/01/2004 6.4 40 36
15 Lines For A Grave-Stone 01/01/2004 6.1 37 7
16 Sonnet Iii: Mindful Of You The Sodden Earth 01/01/2004 5.6 42 5
17 Sonnet Iv: Not In This Chamber 01/01/2004 5.5 42 3
18 I Shall Go Back 01/01/2004 5.5 39 25
19 No Rose That In A Garden Ever Grew 01/01/2004 5.5 36 12
20 We Talk Of Taxes... 01/01/2004 6.2 28 4
21 I, Being Born A Woman And Distressed 01/01/2004 6.7 33 54
22 Sonnet V: If I Should Learn 01/01/2004 5.3 48 4
23 Recuerdo 01/01/2004 6.5 43 19
24 Humoresque 01/01/2004 5.6 30 16
25 I Do But Ask That You Be Always Fair 01/01/2004 5.5 42 29
26 Sonnet Ii: Time Does Not Bring Relief 01/01/2004 6.0 47 25
27 Sonnets (1923) 01/01/2004 5.3 49 6
28 Oh, My Belovèd, Have You Thought Of This 01/01/2004 6.0 36 12
29 Only Until This Cigarette Is Ended 01/01/2004 5.5 36 44
30 Sonnet Vi: This Door You Might Not Open 01/01/2004 5.9 49 12
31 Sonnet I: Thou Art Not Lovelier Than Lilacs 01/01/2004 5.6 43 10
32 Counting-Out Rhyme 01/01/2004 6.1 98 22
33 I Know 100 Ways To Die 07/07/2003 7.8 4 28
34 Chorus 01/13/2003 5.8 82 22
35 Sonnet (Women Have Loved Before As I Love Now) 01/13/2003 5.9 44 18
36 Inland 01/13/2003 5.5 36 7
37 The Wood Road 01/13/2003 5.8 44 5
38 Fontaine, Je Ne Boirai Pas De Ton Eau! 01/13/2003 5.5 31 8
39 Ebb 01/13/2003 5.5 81 25
40 Second Fig 01/13/2003 6.0 47 27
41 Wraith 01/13/2003 5.6 29 12
42 I Dreamed I Moved Among The Elysian Fields 01/13/2003 5.9 68 25
43 Memorial To D.C. 01/13/2003 5.8 31 2
44 The Plaid Dress 01/13/2003 5.8 46 10
45 Interim 01/13/2003 6.1 36 14
46 Midnight Oil 01/13/2003 5.9 35 11
47 Love Is Not All 01/13/2003 7.5 80 175
48 Portrait By A Neighbour 01/13/2003 5.9 35 8
49 Rosemary 01/13/2003 5.5 44 6
50 Not Even My Pride Shall Suffer Much 01/13/2003 5.7 37 9
51 The Leaf And The Tree 01/13/2003 5.8 59 15
52 Kin To Sorrow 01/13/2003 5.5 34 20
53 Lines Written In Recapitulation 01/13/2003 6.2 49 4
54 City Trees 01/13/2003 5.8 134 58
55 To A Poet That Died Young 01/13/2003 5.8 43 7
56 The Shroud 01/13/2003 5.5 57 4
57 Night Is My Sister, And How Deep In Love 01/13/2003 5.7 35 26
58 Sorrow 01/13/2003 5.7 53 26
59 Underground System 01/13/2003 5.8 34 3
60 Apostrophe To Man 01/13/2003 5.8 118 32
61 The Curse 01/13/2003 5.9 68 12
62 Two Sonnets In Memory 01/13/2003 5.9 31 5
63 Scrub 01/13/2003 5.7 42 4
64 Dirge Without Music 01/13/2003 6.5 101 66
65 Spring 01/13/2003 6.1 45 21
66 When We Are Old And These Rejoicing Veins 01/13/2003 5.7 35 14
67 Sonnets 09: Let You Not Say Of Me When I Am Old 01/13/2003 5.6 51 9
68 The Spring And The Fall 01/13/2003 8.0 111 66
69 Sonnets 11: As To Some Lovely Temple, Tenantless 01/13/2003 5.7 44 3
70 Sweet Love, Sweet Thorn, When Lightly To My Heart 01/13/2003 5.6 45 16
71 The Little Hill 01/13/2003 5.8 54 7
72 Wild Swans 01/13/2003 5.9 32 14
73 Think Not, Not For A Moment Let Your Mind 01/13/2003 5.7 54 14
74 Sonnets 12: Cherish You Then The Hope I Shall Forget 01/13/2003 5.5 61 3
75 The Penitent 01/13/2003 5.6 30 10
76 The Goose-Girl 01/13/2003 5.8 69 9
77 Sonnets From An Ungrafted Tree 01/13/2003 5.7 46 4
78 Alms 01/13/2003 5.7 92 26
79 Not In A Silver Casket Cool With Pearls 01/13/2003 5.9 38 20
80 Doubt No More That Oberon 01/13/2003 5.6 66 12
81 Justice Denied In Massachusetts 01/13/2003 5.8 33 8
82 Menses 01/13/2003 5.5 32 6
83 The Fledgling 01/13/2003 5.4 49 2
84 Sonnets 04: Only Until This Cigarette Is Ended 01/13/2003 5.8 34 11
85 I Know I Am But Summer To Your Heart 01/13/2003 6.5 40 47
86 Mist In The Valley 01/13/2003 5.4 33 14
87 The Concert 01/13/2003 5.5 71 7
88 The Singing-Woman From The Wood's Edge 01/13/2003 5.9 45 7
89 The Suicide 01/13/2003 5.5 58 18
90 The True Encounter 01/13/2003 5.9 54 6
91 Whereas At Morning In A Jeweled Crown 01/13/2003 5.4 42 6
92 Weeds 01/13/2003 8.0 1 8
93 The Bean-Stalk 01/13/2003 5.6 58 5
94 Sonnet 03: Mindful Of You The Sodden Earth In Spring 01/13/2003 5.4 42 5
95 The Ballad Of The Harp-Weaver 01/13/2003 5.9 61 27
96 The Blue-Flag In The Bog 01/13/2003 5.3 62 2
97 Elegy 01/13/2003 5.3 42 8
98 Lament 01/13/2003 6.4 39 25
99 Elegy Before Death 01/13/2003 6.1 31 14
100 Song Of A Second April 01/13/2003 5.9 46 8
101 The Fawn 01/13/2003 5.8 66 5
102 A Visit To The Asylum 01/13/2003 6.0 99 59
103 Autumn Daybreak 01/13/2003 5.6 130 43
104 Being Young And Green 01/13/2003 5.5 84 33
105 Dirge 01/13/2003 5.6 68 11
106 Ashes Of Life 01/13/2003 6.0 87 67
107 The Little Ghost 01/13/2003 6.1 38 16
108 Blight 01/13/2003 5.9 96 22
109 Intention To Escape From Him 01/13/2003 6.3 34 21
110 Sonnets 07: When I Too Long Have Looked Upon Your Face 01/13/2003 5.9 44 22
111 Make Bright The Arrows 01/13/2003 5.7 38 4
112 If Still Your Orchards Bear 01/13/2003 5.8 32 7
113 Low-Tide 01/13/2003 4.8 45 14
114 Here Is A Wound That Never Will Heal, I Know 01/13/2003 6.0 56 57
115 I Know The Face Of Falsehood And Her Tongue 01/13/2003 5.6 44 7
116 Witch-Wife 01/13/2003 5.4 39 23
117 Daphne 01/13/2003 5.7 93 33
118 Eel-Grass 01/13/2003 6.0 33 10
119 Epitaph 01/13/2003 6.1 38 17
120 Journey 01/13/2003 6.2 26 17
121 What Lips My Lips Have Kissed, And Where, And Why (Sonnet Xliii) 01/13/2003 7.9 123 373
122 The Dream 01/13/2003 5.8 62 26
123 Sonnet 06: Bluebeard 01/13/2003 6.1 49 7
124 Burial 01/13/2003 5.3 89 30
125 Assault 01/13/2003 5.6 123 20
126 Modern Declaration 01/13/2003 5.6 34 9
127 The Death Of Autumn 01/13/2003 5.9 59 10
128 Sonnet 05: If I Should Learn, In Some Quite Casual Way 01/13/2003 5.9 48 18
129 Sonnets 06: No Rose That In A Garden Ever Grew 01/13/2003 5.6 42 7
130 Three Songs Of Shattering 01/13/2003 5.9 38 7
131 To Those Without Pity 01/13/2003 5.1 39 10
132 Sonnets 05: Once More Into My Arid Days Like Dew 01/13/2003 5.7 32 8
133 Sonnets 10: Oh, My Beloved, Have You Thought Of This 01/13/2003 5.8 44 6
134 The Philosopher 01/13/2003 5.6 44 22
135 Sonnets 08: And You As Well Must Die, Beloved Dust 01/13/2003 5.5 50 6
136 My Most Distinguished Guest And Learned Friend 01/13/2003 5.4 35 9
137 Sonnets 01: We Talk Of Taxes, And I Call You Friend 01/13/2003 5.4 48 9
138 Pastoral 01/13/2003 5.1 35 5
139 Souvenir 01/13/2003 5.6 46 11
140 Sonnet 01: Thou Art Not Lovelier Than Lilacs,&Mdash;No 01/13/2003 5.7 44 15
141 Sonnet 02: Time Does Not Bring Relief; You All Have Lied 01/13/2003 6.5 66 65
142 Exiled 01/13/2003 6.5 44 21
143 To The Not Impossible Him 01/13/2003 5.3 52 14
144 The Unexplorer 01/13/2003 6.0 49 8
145 Passer Mortuus Est 01/13/2003 5.8 46 10
146 Pity Me Not Because The Light Of Day 01/13/2003 6.3 38 32
147 An Ancient Gesture 01/13/2003 6.0 107 49
148 The Return From Town 01/13/2003 5.5 47 6
149 Prayer To Persephone 01/13/2003 5.5 33 18
150 The Poet And His Book 01/13/2003 6.2 40 10
151 Ode To Silence 01/13/2003 5.9 33 15
152 Indifference 01/13/2003 5.8 33 11
153 Tavern 01/13/2003 5.6 48 7
154 Sonnet 04: Not In This Chamber Only At My Birth 01/13/2003 5.5 43 4
155 Sonnets 02: Into The Golden Vessel Of Great Song 01/13/2003 5.3 55 3
156 Conscientious Objector 01/13/2003 5.5 180 72
157 Sonnets 03: Not With Libations, But With Shouts And Laughter 01/13/2003 5.8 56 6
158 Feast 01/13/2003 6.0 50 14
159 First Fig 01/13/2003 7.5 74 92
160 Invocation To The Muses 01/13/2003 5.6 36 4
161 Mariposa 01/13/2003 6.6 50 12
162 Departure 01/13/2003 5.5 88 40
163 And Do You Think That Love Itself 01/13/2003 6.1 114 63
164 Oh, Oh, You Will Be Sorry 01/13/2003 6.4 38 33
165 Travel 01/13/2003 6.0 41 16
166 The Snow Storm 01/13/2003 5.8 75 7
167 God's World 01/04/2003 6.1 69 38
168 Afternoon On A Hill 01/04/2003 6.6 118 75
169 When The Year Grows Old 01/04/2003 5.7 38 16
170 Renascence 01/04/2003 7.0 31 61
[Hata Bildir]